#timestamp,LO_Frequency,Hit,StdDev 
1615996815.1,286046999.1,N
1615996835.9,286046996.7,Y
1615996855.7,286046997.8,P
1615996875.5,286046999.3,N
1615996895.4,286046996.5,P
1615996915.2,286046997.8,N
1615996935.1,286046995.3,Y
1615996936.0,286046995.3,P
1615996955.8,286047001.0,N
1615996975.6,286047001.1,N
1615996995.5,286047000.2,N
1615997015.3,286047000.8,N
1615997035.1,286046998.5,N
1615997055.9,286046998.1,N
1615997075.7,286046998.8,N
1615997095.6,286046998.7,N
1615997115.4,286047001.2,N
1615997135.2,286046998.6,N
1615997155.1,286046998.7,N
1615997156.0,286046998.7,N
1615997175.8,286046996.8,N
1615997195.6,286046996.7,N
1615997215.5,286046997.3,N
1615997235.3,286046996.8,N
1615997255.2,286046997.8,N
1615997275.9,286046996.7,N
1615997295.7,286046999.4,N
1615997315.6,286046997.3,N
1615997335.4,286046997.0,N
1615997355.2,286046996.9,N
1615997375.1,286046997.7,N
1615997376.0,286046997.7,N
1615997395.8,286046997.2,N
1615997415.7,286046997.4,N
1615997435.5,286046997.6,N
1615997455.3,286046995.9,N
1615997475.2,286046993.7,Y
1615997495.0,286046994.9,P
1615997495.9,286046994.9,P
1615997515.7,286046995.2,P
1615997535.6,286046993.7,Y
1615997555.4,286046998.1,P
1615997575.3,286046998.5,N
1615997595.1,286047001.1,N
1615997596.0,286047001.1,N
1615997615.8,286047001.2,N
1615997635.7,286046998.4,N
1615997655.5,286047001.2,N
1615997675.3,286047001.1,N
1615997695.2,286046998.7,N
1615997715.0,286046998.3,N
1615997715.9,286046998.3,N
1615997735.8,286046998.2,N
1615997755.6,286046998.9,N
1615997775.4,286046998.5,N
1615997795.3,286046998.5,N
1615997815.1,286046999.0,N
1615997835.8,286046996.9,N
1615997855.7,286046997.9,N
1615997875.5,286046996.9,N
1615997895.4,286046997.5,N
1615997915.2,286046995.5,N
1615997935.0,286046995.8,N
1615997935.9,286046995.8,N
1615997955.8,286046995.4,N
1615997975.6,286046996.6,N
1615997995.4,286046998.2,N
1615998015.3,286046998.7,N
1615998035.1,286046999.2,N
1615998055.9,286046998.6,N
1615998075.7,286046998.4,N
1615998095.5,286046996.6,N
1615998115.4,286046997.8,N
1615998135.2,286046996.5,N
1615998155.0,286046998.0,N
1615998155.9,286046998.0,N
1615998175.8,286046997.3,N
1615998195.6,286046996.7,N
1615998215.5,286046997.2,N
1615998235.3,286046996.8,N
1615998255.1,286046997.2,N
1615998275.9,286046996.7,Y
1615998295.7,286047000.3,P
1615998315.5,286047000.6,N
1615998335.4,286047000.3,N
1615998355.2,286047000.0,N
1615998375.1,286046999.7,N
1615998376.0,286046999.7,N
1615998395.8,286046999.8,N
1615998415.6,286047000.7,N
1615998435.5,286047000.6,N
1615998455.3,286047000.5,N
1615998475.1,286047000.6,N
1615998495.9,286047000.4,N
1615998515.7,286047000.1,N
1615998535.6,286047000.1,N
1615998555.4,286047002.1,N
1615998575.2,286047002.3,N
1615998595.1,286046999.8,N
1615998596.0,286046999.8,N
1615998615.8,286047002.6,N
1615998635.6,286046999.8,N
1615998655.5,286047002.3,N
1615998675.3,286047004.4,Y
1615998695.2,286047004.3,P
1615998715.9,286047002.0,N
1615998735.7,286047001.7,N
1615998755.6,286047001.6,N
1615998775.4,286047003.5,N
1615998795.2,286047001.8,N
1615998815.1,286047001.5,N
1615998816.0,286047001.5,N
1615998835.8,286047002.1,N
1615998855.7,286046999.8,N
1615998875.5,286046999.7,N
1615998895.3,286046999.7,N
1615998915.2,286047000.0,N
1615998935.0,286047002.8,N
1615998935.9,286047002.8,N
1615998955.7,286047002.1,N
1615998975.6,286047002.5,N
1615998995.4,286047002.6,N
1615999015.3,286047002.3,N
1615999035.1,286047000.6,N
1615999036.0,286047000.6,N
1615999055.8,286046999.9,N
1615999075.7,286047001.6,N
1615999095.5,286047002.3,N
1615999115.3,286047000.3,N
1615999135.2,286046999.8,N
1615999155.0,286047001.9,N
1615999155.9,286047001.9,N
1615999175.8,286047002.4,N
1615999195.6,286047002.2,N
1615999215.4,286047004.2,Y
1615999235.3,286047004.3,P
1615999255.1,286047002.6,N
1615999275.8,286047002.8,N
1615999295.7,286046999.8,N
1615999315.5,286047000.7,N
1615999335.4,286046999.3,N
1615999355.2,286046998.4,N
1615999375.0,286046996.6,N
1615999375.9,286046996.6,N
1615999395.8,286046998.5,N
1615999415.6,286046999.6,N
1615999435.4,286046998.9,N
1615999455.3,286046999.6,N
1615999475.1,286046999.6,N
1615999495.9,286046996.8,N
1615999515.7,286046999.6,N
1615999535.5,286046999.1,N
1615999555.4,286046998.2,N
1615999575.2,286046998.6,N
1615999595.0,286047001.0,N
1615999595.9,286047001.0,N
1615999615.8,286047002.8,N
1615999635.6,286047002.1,N
1615999655.4,286047003.9,N
1615999675.3,286047003.7,N
1615999695.1,286047005.2,N
1615999715.9,286047007.2,Y
1615999735.7,286047004.5,P
1615999755.5,286047004.9,N
1615999775.4,286047005.2,N
1615999795.2,286047004.5,N
1615999815.0,286047004.7,N
1615999816.0,286047004.7,N
1615999835.8,286047004.7,Y
1615999855.6,286047002.6,P
1615999875.5,286047001.5,N
1615999895.3,286047001.9,N
1615999915.1,286047000.2,N
1615999935.9,286047000.9,N
1615999955.7,286047000.4,N
1615999975.5,286047002.7,N
1615999995.4,286047001.5,N
1616000015.2,286047004.3,Y
1616000035.1,286046999.7,P
1616000036.0,286046999.7,N
1616000055.8,286047004.3,P
1616000075.6,286047002.4,N
1616000095.5,286047001.7,N
1616000115.3,286047004.4,N
1616000135.2,286047002.1,N
1616000155.9,286047004.3,N
1616000175.7,286047002.0,N
1616000195.6,286046999.9,N
1616000215.4,286047000.7,N
1616000235.2,286047000.9,N
1616000255.1,286047001.0,N
1616000256.0,286047001.0,N
1616000275.8,286047000.3,N
1616000295.6,286047000.8,N
1616000315.5,286047000.6,N
1616000335.3,286046999.8,N
1616000355.2,286047004.0,N
1616000375.9,286047001.4,N
1616000395.7,286047001.7,N
